Theta_e
309 312 314 311 309 314 307 308 305 309 313 321 326 325 327 329 330 331 335 338 339 342 345 347 348 350 351 352 355 354 353 358
307 313 315 314 316 307 308 298 299 305 307 314 319 323 327 328 329 333 331 334 339 342 344 347 349 351 353 354 356 355 354 355
310 308 307 309 309 310 309 309 300 301 308 321 321 326 328 328 331 331 331 334 338 341 344 347 349 350 352 354 355 355 356 356
308 313 315 314 310 312 304 303 309 306 308 322 324 326 329 330 331 332 332 334 340 340 344 344 347 352 352 353 353 355 356 357
304 309 313 311 311 312 312 310 305 300 306 319 324 325 328 330 334 335 336 336 339 339 342 340 340 350 350 352 354 354 356 355
298 304 310 306 309 313 310 303 305 302 310 317 319 323 327 329 335 335 334 336 338 341 343 339 342 343 349 352 354 356 355 355
311 312 311 310 310 311 309 309 304 305 310 319 322 322 324 328 333 334 336 335 336 339 341 344 342 347 347 349 355 355 359 358
308 310 309 309 308 312 312 311 312 313 315 323 323 325 324 326 327 330 334 337 337 338 340 340 343 349 344 346 349 354 352 357
301 307 307 300 306 311 314 318 316 312 318 323 322 322 321 323 326 326 328 333 336 338 339 341 342 344 344 348 351 351 351 346
302 306 296 308 312 311 314 317 320 321 322 324 322 322 324 324 326 325 327 330 332 333 335 339 344 347 348 347 348 350 351 351
299 300 304 307 312 312 312 314 322 322 323 324 324 326 322 326 327 326 328 331 333 334 337 337 338 340 342 343 347 347 344 345
303 297 295 308 313 317 315 308 323 324 325 325 326 319 324 326 327 327 330 331 331 335 336 336 339 342 340 335 332 332 334 338
301 299 304 313 314 317 305 308 324 326 326 325 323 327 328 327 326 326 326 327 329 329 329 333 336 337 333 331 328 330 332 333
302 299 296 316 314 310 316 322 327 328 329 326 328 328 327 326 325 326 325 323 328 328 324 326 327 325 323 323 325 327 330 330
305 306 316 318 319 321 322 323 327 328 328 329 327 328 327 326 328 326 324 324 326 327 326 327 329 326 321 321 323 323 321 321
306 311 314 317 320 322 324 325 328 330 330 329 327 326 327 328 327 325 326 325 326 328 327 326 326 326 323 322 323 323 319 317
308 312 315 318 319 321 322 323 325 330 329 328 328 326 327 326 327 326 327 328 327 324 323 326 327 326 324 322 321 319 318 313
305 314 313 312 319 321 321 322 325 329 329 329 327 326 326 326 325 325 323 324 324 323 322 325 326 325 326 328 325 322 321 320
312 317 316 318 319 320 319 320 326 330 329 328 327 326 327 327 328 324 328 328 327 327 327 326 327 326 327 325 323 320 317 317
Wind_Speed
15 14 16 17 13 10 12 6 8 5 6 7 2 6 3 15 16 18 18 14 16 16 17 19 16 16 16 15 14 14 14 11
14 7 9 15 10 9 8 4 8 7 1 4 6 7 4 9 18 17 10 13 14 14 15 16 16 16 15 16 15 14 14 12
7 13 14 10 11 11 3 9 4 1 5 8 7 9 7 3 11 14 11 14 13 12 12 14 12 14 14 14 14 14 13 12
8 3 7 11 11 15 7 3 3 5 8 7 5 7 9 3 11 17 12 13 12 11 13 8 10 9 11 12 13 13 12 12
10 9 6 9 6 11 9 17 6 4 6 5 4 3 4 4 1 6 6 10 10 6 9 10 7 5 8 12 13 13 12 13
5 10 7 4 5 12 13 10 10 7 7 13 4 4 9 7 5 4 5 9 10 11 12 8 8 6 7 10 10 11 12 12
9 8 4 5 6 7 13 16 5 7 7 6 6 3 6 6 4 4 4 8 8 10 7 8 7 7 7 7 6 6 8 11
9 8 6 9 8 11 6 4 2 7 9 7 4 4 6 7 7 8 8 6 8 5 4 5 2 6 6 6 2 3 9 11
5 7 10 3 4 11 1 5 7 9 9 11 6 7 7 6 7 9 10 10 9 8 6 5 3 4 5 6 9 7 7 4
5 2 9 6 9 2 5 1 3 13 13 8 8 8 7 6 8 9 10 11 11 10 9 8 5 6 6 6 5 5 5 3
4 10 3 7 9 10 8 7 6 12 12 10 10 8 8 5 7 6 7 8 9 8 8 7 7 6 7 8 5 6 4 4
3 6 8 6 6 2 4 7 6 7 12 11 11 6 7 6 6 6 9 7 7 7 8 9 8 8 9 9 7 6 6 5
6 6 6 5 3 2 8 4 7 6 9 8 2 7 12 8 6 6 6 6 7 8 8 8 8 9 9 9 8 6 5 6
3 4 4 6 5 5 5 3 5 6 7 5 9 11 12 8 7 7 6 5 5 8 7 7 8 8 8 8 7 7 8 8
5 6 5 4 5 4 3 6 4 5 5 8 11 10 9 8 8 8 7 6 4 7 9 8 8 8 8 5 5 5 7 7
4 8 5 4 4 3 3 5 5 5 9 10 11 12 10 9 8 7 8 7 6 7 9 9 9 9 8 6 6 8 8 7
6 5 4 7 6 5 6 4 4 7 8 8 10 10 10 9 9 8 8 7 7 8 7 8 8 8 8 7 7 8 9 7
3 9 8 4 11 10 9 7 7 9 10 8 8 10 9 9 8 8 8 7 8 8 7 7 8 8 7 7 7 7 8 6
5 4 5 5 5 9 7 5 7 9 10 11 10 10 9 9 8 8 8 8 8 8 8 8 7 8 7 7 7 7 7 7
Wind_Direction
189 213 225 197 241 318 263 214 256 144 131 94 93 73 171 183 172 196 210 203 205 200 194 193 195 193 193 190 197 200 202 206
188 187 233 277 240 216 226 236 261 136 173 82 8 358 319 167 178 194 202 214 222 208 204 194 195 193 198 193 196 202 208 207
169 205 218 193 234 250 33 281 290 254 97 34 9 351 331 184 179 165 188 220 221 208 202 202 198 197 197 199 196 201 208 209
170 78 285 256 243 216 261 332 49 340 85 4 30 2 352 350 171 155 162 240 235 184 206 206 181 211 197 207 202 202 200 208
177 163 186 223 231 285 217 214 105 11 98 20 337 10 38 24 168 192 192 226 191 164 197 187 190 215 194 217 205 205 200 202
33 357 128 173 235 243 264 271 140 157 128 171 233 360 13 356 307 198 201 193 190 196 180 186 181 221 232 217 225 215 207 217
98 122 108 142 178 287 252 250 253 137 170 167 101 39 13 349 44 92 139 169 190 181 187 171 162 192 184 213 211 253 249 233
94 79 53 57 73 314 315 257 178 137 106 65 94 108 53 29 52 60 53 70 130 151 122 133 208 217 200 199 227 173 263 246
170 163 140 108 289 319 357 274 149 183 127 155 134 84 38 42 58 52 48 46 58 77 82 95 144 167 211 227 205 204 221 182
258 203 234 86 176 21 0 71 103 112 133 126 113 100 75 41 65 47 42 49 52 49 54 52 74 114 137 162 190 221 233 210
222 240 24 162 187 203 258 115 121 127 123 131 134 141 93 76 71 67 63 53 46 50 72 68 70 71 66 62 81 116 108 117
243 234 209 90 140 252 281 172 143 133 137 154 179 215 108 126 94 68 59 52 53 40 46 65 58 79 82 77 61 57 53 66
182 277 94 123 128 184 227 62 142 149 154 153 122 49 110 118 101 79 64 49 58 58 45 38 50 70 73 74 63 59 74 79
224 262 215 155 154 278 65 121 141 155 159 133 106 126 128 137 135 126 109 85 66 78 61 52 61 76 72 61 44 56 61 64
316 40 99 141 50 97 63 136 146 147 137 133 137 135 135 137 130 118 114 103 107 103 93 76 75 85 76 55 61 74 66 59
225 149 152 150 136 133 120 109 146 153 144 147 143 143 144 137 136 131 126 119 124 104 96 88 84 87 87 86 82 85 83 74
228 144 160 201 204 176 167 151 156 150 156 149 145 150 148 141 141 146 130 123 111 110 107 102 106 103 101 98 105 103 100 89
270 142 218 138 190 184 181 185 175 170 162 152 151 139 141 143 144 150 139 136 124 113 115 113 110 105 94 106 113 113 109 92
263 163 182 136 172 178 188 188 177 170 163 161 148 143 144 136 142 127 145 145 137 131 128 125 113 108 108 108 109 102 100 113